K5GJ Weather Reports


Display with metric or nautical units.
time (UTC)temp
F
wind
direction
speed
MPH
gust
MPH
rain 1hr
in
rain 24hr
in
rain mn
in
humidity
%
barometer
mb
20200123030600 57 175 2.0 5.0 0.03 0.55 0.55 93 1015.9
20200123030100 57 110 3.0 5.0 0.05 0.55 0.55 93 1016.0
20200123025600 57 155 2.0 6.0 0.05 0.55 0.55 93 1016.0
20200123025102 57 178 2.0 6.0 0.06 0.55 0.55 93 1016.0
20200123024600 57 188 3.0 7.0 0.06 0.55 0.55 93 1016.0
20200123024059 57 114 2.0 7.0 0.07 0.55 0.55 93 1016.0
20200123023559 57 134 2.0 5.0 0.07 0.55 0.55 93 1016.1
20200123023058 57 173 3.0 5.0 0.07 0.55 0.55 93 1016.2
20200123022559 57 147 2.0 5.0 0.07 0.55 0.55 92 1016.2
20200123022059 57 125 2.0 4.0 0.07 0.55 0.55 92 1016.2
20200123021559 57 130 2.0 6.0 0.06 0.54 0.54 92 1016.2
20200123021100 57 168 3.0 9.0 0.06 0.54 0.54 92 1016.2
20200123020558 57 100 3.0 12.0 0.03 0.51 0.51 92 1016.5
20200123020058 57 169 3.0 10.0 0.02 0.50 0.50 92 1016.2
20200123015600 57 161 4.0 7.0 0.01 0.49 0.49 92 1016.0
20200123015059 57 166 1.0 5.0 0.01 0.49 0.49 91 1016.0
20200123014558 57 173 2.0 5.0 0.02 0.49 0.49 91 1016.2
20200123014058 57 99 3.0 9.0 0.01 0.48 0.48 91 1016.2
20200123013558 57 155 2.0 9.0 0.01 0.48 0.48 91 1016.2
20200123013058 57 182 2.0 5.0 0.01 0.48 0.48 91 1016.2
20200123012557 57 155 2.0 7.0 0.01 0.48 0.48 91 1016.1
20200123012058 57 186 2.0 10.0 0.01 0.48 0.48 91 1016.0
20200123011557 57 110 3.0 10.0 0.01 0.48 0.48 91 1015.8
20200123011057 57 200 3.0 9.0 0.01 0.48 0.48 91 1015.9
20200123010557 57 135 3.0 11.0 0.01 0.48 0.48 91 1015.9
20200123010058 57 185 4.0 11.0 0.01 0.48 0.48 91 1016.0
20200123005558 57 152 4.0 10.0 0.01 0.48 0.48 91 1015.9
20200123005056 57 141 6.0 10.0 0.01 0.48 0.48 91 1015.9
20200123004558 57 76 4.0 11.0 0.00 0.47 0.47 90 1016.0
20200123004057 57 76 4.0 11.0 0.00 0.47 0.47 90 1015.9
20200123003556 57 190 5.0 11.0 0.00 0.47 0.47 90 1016.0
20200123003056 57 138 6.0 11.0 0.00 0.47 0.47 90 1016.0
20200123002555 57 158 6.0 13.0 0.00 0.47 0.47 90 1016.2
20200123002055 57 196 5.0 14.0 0.00 0.47 0.47 90 1016.0
20200123001555 57 166 7.0 15.0 0.00 0.47 0.47 90 1016.0
20200123001054 58 193 6.0 15.0 0.00 0.47 0.47 90 1015.9
20200123000555 57 134 5.0 12.0 0.00 0.47 0.47 91 1016.0
20200123000054 57 125 4.0 12.0 0.00 0.47 0.47 91 1016.0
20200122235553 57 133 3.0 7.0 0.00 0.47 0.47 91 1016.1
20200122235054 57 137 4.0 10.0 0.00 0.47 0.47 91 1016.0
20200122234555 57 158 4.0 7.0 0.00 0.47 0.47 91 1016.2
20200122234053 57 171 3.0 5.0 0.00 0.47 0.47 91 1016.1
20200122233556 57 128 2.0 5.0 0.00 0.47 0.47 91 1016.1
20200122233053 57 161 3.0 5.0 0.00 0.47 0.47 91 1016.1
20200122232555 57 178 3.0 5.0 0.00 0.47 0.47 91 1016.3
20200122232054 57 180 2.0 6.0 0.00 0.47 0.47 90 1016.2
20200122231553 57 166 3.0 10.0 0.00 0.47 0.47 90 1016.1
20200122231051 57 123 3.0 10.0 0.00 0.47 0.47 91 1016.1
20200122230553 57 237 3.0 10.0 0.00 0.47 0.47 91 1016.1
20200122230054 57 133 5.0 9.0 0.01 0.47 0.47 91 1016.7
20200122225553 57 166 3.0 9.0 0.01 0.47 0.47 91 1016.9
20200122225052 57 148 3.0 10.0 0.01 0.47 0.47 91 1016.9
20200122224552 57 171 4.0 10.0 0.01 0.47 0.47 91 1016.5
20200122224053 57 221 5.0 9.0 0.02 0.47 0.47 91 1016.8
20200122223552 57 193 3.0 7.0 0.02 0.47 0.47 91 1017.2
20200122223052 57 197 4.0 13.0 0.02 0.47 0.47 92 1017.2
20200122222553 57 147 2.0 13.0 0.02 0.47 0.47 92 1016.9
20200122222052 57 171 2.0 12.0 0.02 0.47 0.47 92 1016.7
20200122221551 57 164 3.0 12.0 0.02 0.47 0.47 92 1016.3
20200122221053 57 131 2.0 12.0 0.02 0.47 0.47 92 1016.5
20200122220551 56 142 4.0 9.0 0.02 0.47 0.47 92 1016.2
20200122220053 56 120 3.0 12.0 0.01 0.46 0.46 92 1015.8
20200122215552 56 159 6.0 9.0 0.01 0.46 0.46 92 1015.5
20200122215052 56 144 5.0 7.0 0.01 0.46 0.46 92 1016.0
20200122214551 56 195 4.0 12.0 0.00 0.45 0.45 93 1015.9
20200122214051 56 164 6.0 12.0 0.00 0.45 0.45 93 1015.8
20200122213552 56 134 6.0 7.0 0.00 0.45 0.45 93 1015.7
20200122213051 56 217 3.0 7.0 0.00 0.45 0.45 93 1016.0
20200122212551 56 172 4.0 7.0 0.00 0.45 0.45 93 1016.3
20200122212050 56 193 3.0 15.0 0.00 0.45 0.45 93 1016.5
20200122211550 56 202 5.0 15.0 0.01 0.45 0.45 93 1015.9
20200122211051 56 158 4.0 14.0 0.01 0.45 0.45 93 1015.8
20200122210552 56 159 4.0 14.0 0.01 0.45 0.45 93 1016.0
20200122210051 56 148 5.0 15.0 0.01 0.45 0.45 93 1016.2
20200122205550 56 133 4.0 15.0 0.02 0.45 0.45 93 1016.3
20200122205051 56 118 6.0 11.0 0.02 0.45 0.45 93 1016.5
20200122204549 56 137 5.0 13.0 0.02 0.45 0.45 93 1016.5
20200122204051 56 159 5.0 14.0 0.03 0.45 0.45 93 1016.5
20200122203550 56 199 6.0 14.0 0.03 0.45 0.45 94 1016.5
20200122203049 56 164 5.0 11.0 0.03 0.45 0.45 94 1016.6
20200122202550 56 171 6.0 12.0 0.03 0.45 0.45 94 1016.9
20200122202050 56 97 5.0 12.0 0.04 0.45 0.45 94 1017.1
20200122201549 56 133 4.0 9.0 0.03 0.44 0.44 94 1017.3
20200122201048 56 164 4.0 12.0 0.03 0.44 0.44 94 1017.3
20200122200549 55 148 4.0 12.0 0.03 0.44 0.44 94 1017.4
20200122200050 55 168 6.0 12.0 0.04 0.44 0.44 94 1017.7
20200122195550 55 138 3.0 9.0 0.03 0.43 0.43 94 1018.1
20200122195049 55 164 3.0 9.0 0.03 0.43 0.43 94 1018.0
20200122194548 55 171 4.0 9.0 0.04 0.43 0.43 94 1018.1
20200122194048 55 128 5.0 9.0 0.03 0.42 0.42 94 1018.3
20200122193547 55 87 3.0 7.0 0.03 0.42 0.42 94 1018.4
20200122193048 54 148 3.0 6.0 0.03 0.42 0.42 94 1018.5
20200122192548 54 200 3.0 6.0 0.04 0.42 0.42 95 1018.6
20200122192048 54 80 3.0 9.0 0.03 0.41 0.41 95 1018.7
20200122191548 53 165 2.0 9.0 0.04 0.41 0.41 94 1018.8
20200122191049 53 111 3.0 5.0 0.04 0.41 0.41 95 1018.9
20200122190547 53 113 2.0 4.0 0.05 0.41 0.41 94 1019.0
20200122190048 53 87 2.0 5.0 0.04 0.40 0.40 95 1019.2
20200122185547 52 178 2.0 5.0 0.05 0.40 0.40 94 1019.3
20200122185048 52 149 2.0 4.0 0.05 0.40 0.40 94 1019.6
20200122184548 51 185 3.0 5.0 0.05 0.39 0.39 95 1019.7
20200122184048 51 206 3.0 5.0 0.05 0.39 0.39 94 1019.7
20200122183547 51 190 2.0 4.0 0.06 0.39 0.39 94 1019.8
20200122183046 50 185 1.0 4.0 0.06 0.39 0.39 94 1020.0
20200122182546 50 179 1.0 4.0 0.06 0.38 0.38 94 1020.2
20200122182046 50 141 2.0 4.0 0.06 0.38 0.38 94 1020.4
20200122181547 49 85 2.0 6.0 0.06 0.37 0.37 94 1020.6
20200122181047 49 188 3.0 6.0 0.06 0.37 0.37 94 1020.8
20200122180546 49 192 2.0 5.0 0.06 0.36 0.36 94 1021.1
20200122180047 49 111 1.0 5.0 0.07 0.36 0.36 94 1021.2
20200122175546 48 118 1.0 3.0 0.06 0.35 0.35 94 1021.4
20200122175047 48 192 1.0 4.0 0.06 0.35 0.35 94 1021.5
20200122174545 48 169 1.0 4.0 0.06 0.34 0.34 94 1021.6
20200122174046 47 41 2.0 4.0 0.07 0.34 0.34 94 1021.6
20200122173545 47 149 1.0 3.0 0.06 0.33 0.33 94 1021.6
20200122173046 47 202 1.0 3.0 0.07 0.33 0.33 94 1021.5
20200122172547 47 113 2.0 4.0 0.06 0.32 0.32 94 1021.6
20200122172046 47 97 1.0 3.0 0.07 0.32 0.32 94 1021.7
20200122171547 46 117 1.0 3.0 0.07 0.31 0.31 93 1022.0
20200122171046 46 42 2.0 4.0 0.08 0.31 0.31 93 1022.1
20200122170545 46 193 2.0 4.0 0.07 0.30 0.30 93 1022.2
20200122170046 46 79 1.0 6.0 0.07 0.29 0.29 93 1022.3
20200122165545 46 85 1.0 6.0 0.08 0.29 0.29 93 1022.2
20200122165045 45 89 2.0 6.0 0.08 0.28 0.28 93 1022.3
20200122164544 45 193 2.0 4.0 0.08 0.28 0.28 93 1022.4
20200122164046 45 120 2.0 4.0 0.08 0.27 0.27 93 1022.5
20200122163544 45 137 1.0 4.0 0.08 0.27 0.27 93 1022.6
20200122163044 45 73 2.0 3.0 0.07 0.26 0.26 93 1022.7
20200122162545 45 166 1.0 6.0 0.07 0.25 0.25 93 1022.8
20200122162044 44 154 2.0 6.0 0.08 0.25 0.25 93 1022.9
20200122161544 44 97 2.0 6.0 0.07 0.24 0.24 93 1022.9
20200122161043 44 148 1.0 6.0 0.07 0.23 0.23 93 1023.1
20200122160543 44 148 3.0 6.0 0.07 0.23 0.23 93 1023.1
20200122160043 44 71 1.0 5.0 0.07 0.22 0.22 93 1023.2
20200122155545 44 79 2.0 5.0 0.06 0.21 0.21 93 1023.2
20200122155042 44 193 2.0 6.0 0.06 0.20 0.20 93 1023.2
20200122154544 43 94 3.0 6.0 0.07 0.20 0.20 92 1023.1
20200122154043 43 161 2.0 7.0 0.06 0.19 0.19 92 1023.0
20200122153542 43 162 1.0 7.0 0.07 0.19 0.19 92 1023.0
20200122153042 43 145 1.0 4.0 0.07 0.18 0.18 92 1023.0
20200122152543 43 55 2.0 5.0 0.08 0.18 0.18 92 1023.0
20200122152043 43 182 2.0 5.0 0.08 0.17 0.17 92 1023.1
20200122151542 43 179 2.0 5.0 0.08 0.17 0.17 92 1023.0
20200122151040 43 94 1.0 5.0 0.08 0.16 0.16 92 1023.1
20200122150539 43 118 2.0 3.0 0.08 0.16 0.16 92 1023.0
20200122150036 43 83 1.0 7.0 0.08 0.15 0.15 92 1023.1
20200122145539 42 116 3.0 13.0 0.08 0.15 0.15 92 1023.0
20200122145036 42 326 2.0 13.0 0.08 0.14 0.14 92 1023.2
20200122144536 42 79 2.0 7.0 0.07 0.13 0.13 91 1023.2
20200122144031 42 107 2.0 7.0 0.07 0.12 0.12 91 1023.3
20200122143532 42 104 3.0 6.0 0.07 0.12 0.12 91 1023.3
20200122143033 42 39 3.0 6.0 0.07 0.11 0.11 91 1023.3
20200122142532 42 87 2.0 6.0 0.06 0.10 0.10 91 1023.3
20200122142033 42 69 2.0 6.0 0.05 0.09 0.09 91 1023.3
20200122141503 42 65 3.0 6.0 0.06 0.09 0.09 91 1023.3
20200122141004 42 116 2.0 6.0 0.05 0.08 0.08 90 1023.2
20200122140505 42 83 2.0 6.0 0.05 0.08 0.08 90 1023.3
20200122140004 42 86 2.0 6.0 0.04 0.07 0.07 90 1023.2
20200122135504 42 113 2.0 7.0 0.04 0.07 0.07 90 1023.2
20200122135003 42 51 2.0 5.0 0.04 0.06 0.06 90 1023.1
20200122134504 42 100 2.0 6.0 0.04 0.06 0.06 89 1023.1
20200122134005 42 73 2.0 6.0 0.03 0.05 0.05 89 1023.0
20200122133504 42 89 2.0 6.0 0.03 0.05 0.05 89 1023.2
20200122133002 42 103 2.0 9.0 0.02 0.04 0.04 89 1023.3
20200122132504 43 75 3.0 9.0 0.02 0.04 0.04 89 1023.5
20200122132003 43 123 1.0 6.0 0.03 0.04 0.04 88 1023.4
20200122131502 43 92 2.0 6.0 0.02 0.03 0.03 88 1023.5
20200122131002 43 93 2.0 5.0 0.02 0.03 0.03 88 1023.6
20200122130504 43 58 2.0 4.0 0.02 0.03 0.03 88 1023.6
20200122130004 43 103 0.0 4.0 0.03 0.03 0.03 87 1023.7
20200122125503 43 123 1.0 4.0 0.03 0.03 0.03 87 1023.7
20200122125004 43 152 1.0 5.0 0.02 0.02 0.02 87 1023.5
20200122124503 43 127 1.0 5.0 0.02 0.02 0.02 87 1023.5
20200122124004 43 197 2.0 5.0 0.02 0.02 0.02 87 1023.4
20200122123502 43 87 2.0 4.0 0.02 0.02 0.02 86 1023.6
20200122123003 43 106 2.0 4.0 0.02 0.02 0.02 86 1023.5
20200122122504 43 118 1.0 3.0 0.02 0.02 0.02 85 1023.5
20200122122003 44 137 1.0 7.0 0.01 0.01 0.01 85 1023.6
20200122121502 44 99 2.0 7.0 0.01 0.01 0.01 84 1023.5
20200122121003 44 171 3.0 7.0 0.01 0.01 0.01 83 1023.5
20200122120502 44 142 1.0 12.0 0.00 0.00 0.00 82 1023.6
20200122120003 44 173 2.0 12.0 0.00 0.00 0.00 81 1023.5
20200122115503 44 138 4.0 7.0 0.00 0.00 0.00 81 1023.7
20200122115002 45 175 3.0 10.0 0.00 0.00 0.00 80 1023.5
20200122114502 45 49 3.0 10.0 0.00 0.00 0.00 80 1023.6
20200122114003 45 152 3.0 6.0 0.00 0.00 0.00 80 1023.7
20200122113505 45 164 2.0 5.0 0.00 0.00 0.00 80 1023.7
20200122113003 45 130 2.0 6.0 0.00 0.00 0.00 79 1023.6
20200122112505 45 162 2.0 9.0 0.00 0.00 0.00 80 1023.7
20200122112003 45 113 3.0 6.0 0.00 0.00 0.00 79 1023.7
20200122111504 45 121 3.0 6.0 0.00 0.00 0.00 79 1023.6
20200122111004 45 162 3.0 9.0 0.00 0.00 0.00 79 1023.5
20200122110504 45 209 2.0 5.0 0.00 0.00 0.00 79 1023.8
20200122110002 45 85 2.0 4.0 0.00 0.00 0.00 78 1023.9
20200122105504 45 76 3.0 4.0 0.00 0.00 0.00 78 1023.9
20200122105004 45 76 3.0 5.0 0.00 0.00 0.00 78 1024.1
20200122104457 45 107 2.0 5.0 0.00 0.00 0.00 77 1024.4
20200122103954 45 94 1.0 5.0 0.00 0.00 0.00 77 1024.7
20200122103454 45 106 2.0 5.0 0.00 0.00 0.00 77 1024.4
20200122102954 45 182 2.0 5.0 0.00 0.00 0.00 77 1024.8
20200122102451 45 93 1.0 5.0 0.00 0.00 0.00 77 1024.7
20200122101951 45 78 1.0 4.0 0.00 0.00 0.00 77 1024.8
20200122101452 46 172 1.0 5.0 0.00 0.00 0.00 75 1024.9
20200122100950 46 38 2.0 5.0 0.00 0.00 0.00 73 1024.9
20200122100450 46 94 2.0 6.0 0.00 0.00 0.00 72 1025.1
20200122095950 46 89 1.0 6.0 0.00 0.00 0.00 72 1025.2
20200122095447 46 65 2.0 5.0 0.00 0.00 0.00 72 1025.1
20200122094948 47 182 2.0 9.0 0.00 0.00 0.00 70 1025.1
20200122094447 47 99 2.0 9.0 0.00 0.00 0.00 69 1025.2
20200122093948 47 58 3.0 9.0 0.00 0.00 0.00 69 1025.2
20200122093447 47 145 3.0 9.0 0.00 0.00 0.00 69 1025.4
20200122092947 47 85 1.0 6.0 0.00 0.00 0.00 70 1025.7
20200122092445 47 104 2.0 4.0 0.00 0.00 0.00 70 1026.0
20200122091944 47 89 2.0 5.0 0.00 0.00 0.00 71 1026.1
20200122091445 47 52 2.0 5.0 0.00 0.00 0.00 71 1026.3
20200122090941 47 92 1.0 4.0 0.00 0.00 0.00 72 1026.4
20200122090441 47 73 1.0 7.0 0.00 0.00 0.00 72 1026.3
20200122085942 48 14 1.0 7.0 0.00 0.00 0.00 72 1026.5
20200122085440 48 92 2.0 6.0 0.00 0.00 0.00 72 1026.4
20200122084941 48 68 2.0 6.0 0.00 0.00 0.00 72 1026.6
20200122084440 48 83 2.0 6.0 0.00 0.00 0.00 73 1026.8
20200122083938 48 90 2.0 4.0 0.00 0.00 0.00 73 1026.8
20200122083437 48 79 1.0 3.0 0.00 0.00 0.00 73 1027.0
20200122082938 48 89 0.0 3.0 0.00 0.00 0.00 73 1027.2
20200122082438 48 82 0.0 4.0 0.00 0.00 0.00 73 1027.3
20200122081935 48 82 1.0 4.0 0.00 0.00 0.00 72 1027.4
20200122081436 49 0 1.0 3.0 0.00 0.00 0.00 72 1027.4
20200122080933 49 56 1.0 3.0 0.00 0.00 0.00 72 1027.2
20200122080433 49 52 1.0 4.0 0.00 0.00 0.00 72 1027.3
20200122075934 49 86 2.0 5.0 0.00 0.00 0.00 72 1027.4
20200122075431 49 68 1.0 5.0 0.00 0.00 0.00 72 1027.3
20200122074930 49 54 0.0 2.0 0.00 0.00 0.00 72 1027.2
20200122074431 49 54 0.0 2.0 0.00 0.00 0.00 72 1027.3
20200122073930 49 54 0.0 2.0 0.00 0.00 0.00 72 1027.5
20200122073430 49 54 0.0 2.0 0.00 0.00 0.00 71 1027.7
20200122072930 49 51 0.0 2.0 0.00 0.00 0.00 71 1027.6
20200122072430 49 51 0.0 3.0 0.00 0.00 0.00 71 1027.8
20200122071932 49 87 0.0 3.0 0.00 0.00 0.00 71 1027.6
20200122071431 49 75 0.0 2.0 0.00 0.00 0.00 71 1027.8
20200122070930 49 75 0.0 2.0 0.00 0.00 0.00 71 1028.1
20200122070431 49 75 0.0 2.0 0.00 0.00 0.00 71 1027.6
20200122065929 49 82 0.0 3.0 0.00 0.00 0.00 71 1027.7
20200122065429 49 82 1.0 3.0 0.00 0.00 0.00 71 1027.5
20200122064929 49 79 0.0 3.0 0.00 0.00 0.00 72 1027.6
20200122064429 49 100 0.0 0.0 0.00 0.00 0.00 72 1027.6
20200122063931 49 100 0.0 1.0 0.00 0.00 0.00 73 1027.7
20200122063428 49 100 0.0 2.0 0.00 0.00 0.00 73 1027.8
20200122062930 49 100 0.0 2.0 0.00 0.00 0.00 73 1028.1
20200122062429 49 100 0.0 1.0 0.00 0.00 0.00 73 1028.0
20200122061928 49 100 0.0 2.0 0.00 0.00 0.00 72 1028.3
20200122061429 49 100 0.0 1.0 0.00 0.00 0.00 72 1028.3
20200122060928 49 100 0.0 1.0 0.00 0.00 0.00 72 1028.4
20200122060428 49 100 0.0 1.0 0.00 0.00 0.00 71 1028.4
20200122055929 49 100 0.0 1.0 0.00 0.00 0.00 70 1028.4
20200122055428 49 100 0.0 2.0 0.00 0.00 0.00 70 1028.7
20200122054929 49 100 0.0 2.0 0.00 0.00 0.00 70 1028.6
20200122054430 49 100 0.0 2.0 0.00 0.00 0.00 70 1028.3
20200122053929 49 100 0.0 2.0 0.00 0.00 0.00 70 1028.4
20200122053428 49 100 0.0 2.0 0.00 0.00 0.00 71 1028.3
20200122052927 49 87 0.0 3.0 0.00 0.00 0.00 71 1028.3
20200122052428 49 87 1.0 3.0 0.00 0.00 0.00 71 1028.4
20200122051928 49 92 1.0 4.0 0.00 0.00 0.00 72 1028.1
20200122051428 49 161 0.0 2.0 0.00 0.00 0.00 71 1028.2
20200122050928 49 161 0.0 2.0 0.00 0.00 0.00 71 1028.9
20200122050427 49 161 0.0 1.0 0.00 0.00 0.00 71 1028.8
20200122045927 49 161 0.0 2.0 0.00 0.00 0.00 70 1028.9
20200122045427 49 161 1.0 3.0 0.00 0.00 0.00 70 1029.0
20200122044927 49 161 2.0 3.0 0.00 0.00 0.00 70 1028.6
20200122044426 49 157 1.0 3.0 0.00 0.00 0.00 70 1028.7
20200122043927 49 128 1.0 5.0 0.00 0.00 0.00 69 1028.5
20200122043428 49 128 0.0 5.0 0.00 0.00 0.00 69 1028.6
20200122042927 49 149 1.0 4.0 0.00 0.00 0.00 69 1028.3
20200122042428 49 121 1.0 4.0 0.00 0.00 0.00 69 1028.3
20200122041926 49 151 2.0 4.0 0.00 0.00 0.00 69 1028.5
20200122041426 49 120 2.0 4.0 0.00 0.00 0.00 68 1028.6
20200122040926 50 178 1.0 4.0 0.00 0.00 0.00 68 1028.8
20200122040426 50 164 1.0 7.0 0.00 0.00 0.00 68 1028.9
20200122035925 50 137 2.0 7.0 0.00 0.00 0.00 68 1028.5
20200122035425 50 173 2.0 6.0 0.00 0.00 0.00 69 1028.4
20200122034925 50 182 2.0 5.0 0.00 0.00 0.00 69 1028.3
20200122034425 50 134 2.0 5.0 0.00 0.00 0.00 69 1028.4
20200122033925 50 124 3.0 6.0 0.00 0.00 0.00 69 1028.4
20200122033425 50 80 3.0 6.0 0.00 0.00 0.00 69 1028.4
20200122032925 50 162 2.0 5.0 0.00 0.00 0.00 69 1028.7
20200122032425 50 125 1.0 5.0 0.00 0.00 0.00 68 1028.7
20200122031925 50 134 1.0 5.0 0.00 0.00 0.00 68 1028.9
20200122031424 50 159 1.0 5.0 0.00 0.00 0.00 68 1029.0
20200122030924 50 87 3.0 7.0 0.00 0.00 0.00 67 1029.1